Time,TemperatureF,DewpointF,PressureIn,WindDirection,WindDirectionDegrees,WindSpeedMPH,WindSpeedGustMPH,Humidity,HourlyPrecipIn,Conditions,Clouds,dailyrainin,SolarRadiationWatts/m^2,SoftwareType,DateUTC
2013-03-20 00:01:00,39.0,12.0,-100.00,SW,234,0.0,0.0,33,0.00,,,0.00,0.000000,,2013-03-20 04:01:00,
2013-03-20 00:23:00,39.0,12.0,-100.00,SW,234,0.0,0.0,33,0.00,,,0.00,0.000000,,2013-03-20 04:23:00,
2013-03-20 00:32:00,39.0,12.0,-100.00,SW,234,0.0,0.0,33,0.00,,,0.00,0.000000,,2013-03-20 04:32:00,
2013-03-20 00:43:00,39.0,12.0,-100.00,SW,234,0.0,0.0,33,0.00,,,0.00,0.000000,,2013-03-20 04:43:00,
2013-03-20 00:53:00,39.0,12.0,-100.00,SW,234,0.0,0.0,33,0.00,,,0.00,0.000000,,2013-03-20 04:53:00,
2013-03-20 01:01:00,35.0,16.0,-100.00,South,184,0.0,0.0,46,0.00,,,0.00,0.000000,,2013-03-20 05:01:00,
2013-03-20 01:33:00,35.0,16.0,-100.00,South,184,0.0,0.0,46,0.00,,,0.00,0.000000,,2013-03-20 05:33:00,
2013-03-20 01:43:00,35.0,16.0,-100.00,South,184,0.0,0.0,46,0.00,,,0.00,0.000000,,2013-03-20 05:43:00,
2013-03-20 01:53:00,35.0,16.0,-100.00,South,184,0.0,0.0,46,0.00,,,0.00,0.000000,,2013-03-20 05:53:00,
2013-03-20 02:01:00,32.0,23.0,-100.00,SE,139,0.0,0.0,70,0.00,,,0.00,0.000000,,2013-03-20 06:01:00,
2013-03-20 02:32:00,32.0,23.0,-100.00,SE,139,0.0,0.0,70,0.00,,,0.00,0.000000,,2013-03-20 06:32:00,
2013-03-20 02:43:00,32.0,23.0,-100.00,SE,139,0.0,0.0,70,0.00,,,0.00,0.000000,,2013-03-20 06:43:00,
2013-03-20 02:53:00,32.0,23.0,-100.00,SE,139,0.0,0.0,70,0.00,,,0.00,0.000000,,2013-03-20 06:53:00,
2013-03-20 03:01:00,30.0,22.0,-100.00,South,181,0.0,0.0,72,0.00,,,0.00,0.000000,,2013-03-20 07:01:00,
2013-03-20 03:22:00,30.0,22.0,-100.00,South,181,0.0,0.0,72,0.00,,,0.00,0.000000,,2013-03-20 07:22:00,
2013-03-20 03:32:00,30.0,22.0,-100.00,South,181,0.0,0.0,72,0.00,,,0.00,0.000000,,2013-03-20 07:32:00,
2013-03-20 03:42:00,30.0,22.0,-100.00,South,181,0.0,0.0,72,0.00,,,0.00,0.000000,,2013-03-20 07:42:00,
2013-03-20 03:52:00,30.0,22.0,-100.00,South,181,0.0,0.0,72,0.00,,,0.00,0.000000,,2013-03-20 07:52:00,
2013-03-20 04:01:00,28.0,23.0,-100.00,SSE,167,0.0,0.0,81,0.00,,,0.00,0.000000,,2013-03-20 08:01:00,
2013-03-20 04:32:00,28.0,23.0,-100.00,SSE,167,0.0,0.0,81,0.00,,,0.00,0.000000,,2013-03-20 08:32:00,
2013-03-20 04:42:00,28.0,23.0,-100.00,SSE,167,0.0,0.0,81,0.00,,,0.00,0.000000,,2013-03-20 08:42:00,
2013-03-20 04:52:00,28.0,23.0,-100.00,SSE,167,0.0,0.0,81,0.00,,,0.00,0.000000,,2013-03-20 08:52:00,
2013-03-20 05:01:00,27.0,24.0,-100.00,South,183,0.0,0.0,88,0.00,,,0.00,0.000000,,2013-03-20 09:01:00,
2013-03-20 05:33:00,27.0,24.0,-100.00,South,183,0.0,0.0,88,0.00,,,0.00,0.000000,,2013-03-20 09:33:00,
2013-03-20 05:43:00,27.0,24.0,-100.00,South,183,0.0,0.0,88,0.00,,,0.00,0.000000,,2013-03-20 09:43:00,
2013-03-20 05:53:00,27.0,24.0,-100.00,South,183,0.0,0.0,88,0.00,,,0.00,0.000000,,2013-03-20 09:53:00,
2013-03-20 06:01:00,26.0,23.0,-100.00,SSE,147,0.0,0.0,88,0.00,,,0.00,0.000000,,2013-03-20 10:01:00,
2013-03-20 06:33:00,26.0,23.0,-100.00,SSE,147,0.0,0.0,88,0.00,,,0.00,0.000000,,2013-03-20 10:33:00,
2013-03-20 06:43:00,26.0,23.0,-100.00,SSE,147,0.0,0.0,88,0.00,,,0.00,0.000000,,2013-03-20 10:43:00,
2013-03-20 06:53:00,26.0,23.0,-100.00,SSE,147,0.0,0.0,88,0.00,,,0.00,0.000000,,2013-03-20 10:53:00,
2013-03-20 07:01:00,25.0,22.0,-100.00,South,188,0.0,0.0,90,0.00,,,0.00,0.000000,,2013-03-20 11:01:00,
2013-03-20 07:32:00,25.0,22.0,-100.00,South,188,0.0,0.0,90,0.00,,,0.00,0.000000,,2013-03-20 11:32:00,
2013-03-20 07:42:00,25.0,22.0,-100.00,South,188,0.0,0.0,90,0.00,,,0.00,0.000000,,2013-03-20 11:42:00,
2013-03-20 07:52:00,25.0,22.0,-100.00,South,188,0.0,0.0,90,0.00,,,0.00,0.000000,,2013-03-20 11:52:00,
2013-03-20 08:01:00,26.0,23.0,-100.00,South,184,0.0,0.0,87,0.00,,,0.00,6.000000,,2013-03-20 12:01:00,
2013-03-20 08:33:00,26.0,23.0,-100.00,South,184,0.0,0.0,87,0.00,,,0.00,6.000000,,2013-03-20 12:33:00,
2013-03-20 08:43:00,26.0,23.0,-100.00,South,184,0.0,0.0,87,0.00,,,0.00,6.000000,,2013-03-20 12:43:00,
2013-03-20 08:52:00,26.0,23.0,-100.00,South,184,0.0,0.0,87,0.00,,,0.00,6.000000,,2013-03-20 12:52:00,
2013-03-20 09:01:00,32.0,25.0,-100.00,ESE,123,0.0,0.0,75,0.00,,,0.00,164.000000,,2013-03-20 13:01:00,
2013-03-20 09:32:00,32.0,25.0,-100.00,ESE,123,0.0,0.0,75,0.00,,,0.00,164.000000,,2013-03-20 13:32:00,
2013-03-20 09:43:00,32.0,25.0,-100.00,ESE,123,0.0,0.0,75,0.00,,,0.00,164.000000,,2013-03-20 13:43:00,
2013-03-20 09:53:00,32.0,25.0,-100.00,ESE,123,0.0,0.0,75,0.00,,,0.00,164.000000,,2013-03-20 13:53:00,
2013-03-20 10:01:00,40.0,27.0,-100.00,East,93,3.0,5.0,59,0.00,,,0.00,387.000000,,2013-03-20 14:01:00,
2013-03-20 10:23:00,40.0,27.0,-100.00,East,93,3.0,5.0,59,0.00,,,0.00,387.000000,,2013-03-20 14:23:00,
2013-03-20 10:34:00,40.0,27.0,-100.00,East,93,3.0,5.0,59,0.00,,,0.00,387.000000,,2013-03-20 14:34:00,
2013-03-20 10:43:00,40.0,27.0,-100.00,East,93,3.0,5.0,59,0.00,,,0.00,387.000000,,2013-03-20 14:43:00,
2013-03-20 10:53:00,40.0,27.0,-100.00,East,93,3.0,5.0,59,0.00,,,0.00,387.000000,,2013-03-20 14:53:00,
2013-03-20 11:01:00,45.0,20.0,-100.00,SSW,198,8.0,14.0,36,0.00,,,0.00,490.000000,,2013-03-20 15:01:00,
2013-03-20 11:33:00,45.0,20.0,-100.00,SSW,198,8.0,14.0,36,0.00,,,0.00,490.000000,,2013-03-20 15:33:00,
2013-03-20 11:43:00,45.0,20.0,-100.00,SSW,198,8.0,14.0,36,0.00,,,0.00,490.000000,,2013-03-20 15:43:00,
2013-03-20 11:53:00,45.0,20.0,-100.00,SSW,198,8.0,14.0,36,0.00,,,0.00,490.000000,,2013-03-20 15:53:00,
2013-03-20 12:01:00,48.0,17.0,-100.00,SW,225,13.0,21.0,29,0.00,,,0.00,742.000000,,2013-03-20 16:01:00,
2013-03-20 12:23:00,48.0,17.0,-100.00,SW,225,13.0,21.0,29,0.00,,,0.00,742.000000,,2013-03-20 16:23:00,
2013-03-20 12:33:00,48.0,17.0,-100.00,SW,225,13.0,21.0,29,0.00,,,0.00,742.000000,,2013-03-20 16:33:00,
2013-03-20 12:43:00,48.0,17.0,-100.00,SW,225,13.0,21.0,29,0.00,,,0.00,742.000000,,2013-03-20 16:43:00,
2013-03-20 12:53:00,48.0,17.0,-100.00,SW,225,13.0,21.0,29,0.00,,,0.00,742.000000,,2013-03-20 16:53:00,
2013-03-20 13:01:00,49.0,16.0,-100.00,WSW,239,15.0,25.0,27,0.00,,,0.00,861.000000,,2013-03-20 17:01:00,
2013-03-20 13:33:00,49.0,16.0,-100.00,WSW,239,15.0,25.0,27,0.00,,,0.00,861.000000,,2013-03-20 17:33:00,
2013-03-20 13:42:00,49.0,16.0,-100.00,WSW,239,15.0,25.0,27,0.00,,,0.00,861.000000,,2013-03-20 17:42:00,
2013-03-20 13:53:00,49.0,16.0,-100.00,WSW,239,15.0,25.0,27,0.00,,,0.00,861.000000,,2013-03-20 17:53:00,
2013-03-20 14:01:00,50.0,20.0,-100.00,SW,224,16.0,27.0,30,0.00,,,0.00,796.000000,,2013-03-20 18:01:00,
2013-03-20 14:34:00,50.0,20.0,-100.00,SW,224,16.0,27.0,30,0.00,,,0.00,796.000000,,2013-03-20 18:34:00,
2013-03-20 14:43:00,50.0,20.0,-100.00,SW,224,16.0,27.0,30,0.00,,,0.00,796.000000,,2013-03-20 18:43:00,
2013-03-20 14:53:00,50.0,20.0,-100.00,SW,224,16.0,27.0,30,0.00,,,0.00,796.000000,,2013-03-20 18:53:00,
2013-03-20 15:01:00,51.0,21.0,-100.00,SW,228,11.0,30.0,30,0.00,,,0.00,723.000000,,2013-03-20 19:01:00,
2013-03-20 15:33:00,51.0,21.0,-100.00,SW,228,11.0,30.0,30,0.00,,,0.00,723.000000,,2013-03-20 19:33:00,
2013-03-20 15:42:00,51.0,21.0,-100.00,SW,228,11.0,30.0,30,0.00,,,0.00,723.000000,,2013-03-20 19:42:00,
2013-03-20 15:53:00,51.0,21.0,-100.00,SW,228,11.0,30.0,30,0.00,,,0.00,723.000000,,2013-03-20 19:53:00,
2013-03-20 16:01:00,50.0,21.0,-100.00,SW,225,14.0,26.0,31,0.00,,,0.00,683.000000,,2013-03-20 20:01:00,
2013-03-20 16:32:00,50.0,21.0,-100.00,SW,225,14.0,26.0,31,0.00,,,0.00,683.000000,,2013-03-20 20:32:00,
2013-03-20 16:43:00,50.0,21.0,-100.00,SW,225,14.0,26.0,31,0.00,,,0.00,683.000000,,2013-03-20 20:43:00,
2013-03-20 16:53:00,50.0,21.0,-100.00,SW,225,14.0,26.0,31,0.00,,,0.00,683.000000,,2013-03-20 20:53:00,
2013-03-20 17:01:00,46.0,21.0,-100.00,WSW,257,16.0,27.0,37,0.00,,,0.00,232.000000,,2013-03-20 21:01:00,
2013-03-20 17:33:00,46.0,21.0,-100.00,WSW,257,16.0,27.0,37,0.00,,,0.00,232.000000,,2013-03-20 21:33:00,
2013-03-20 17:42:00,46.0,21.0,-100.00,WSW,257,16.0,27.0,37,0.00,,,0.00,232.000000,,2013-03-20 21:42:00,
2013-03-20 17:53:00,46.0,21.0,-100.00,WSW,257,16.0,27.0,37,0.00,,,0.00,232.000000,,2013-03-20 21:53:00,
2013-03-20 18:01:00,40.0,26.0,-100.00,WSW,250,18.0,30.0,56,0.00,,,0.00,261.000000,,2013-03-20 22:01:00,
2013-03-20 18:33:00,40.0,26.0,-100.00,WSW,250,18.0,30.0,56,0.00,,,0.00,261.000000,,2013-03-20 22:33:00,
2013-03-20 18:43:00,40.0,26.0,-100.00,WSW,250,18.0,30.0,56,0.00,,,0.00,261.000000,,2013-03-20 22:43:00,
2013-03-20 18:53:00,40.0,26.0,-100.00,WSW,250,18.0,30.0,56,0.00,,,0.00,261.000000,,2013-03-20 22:53:00,
2013-03-20 19:01:00,39.0,21.0,-100.00,WSW,250,14.0,29.0,48,0.00,,,0.00,103.000000,,2013-03-20 23:01:00,
2013-03-20 19:23:00,39.0,21.0,-100.00,WSW,250,14.0,29.0,48,0.00,,,0.00,103.000000,,2013-03-20 23:23:00,
2013-03-20 19:33:00,39.0,21.0,-100.00,WSW,250,14.0,29.0,48,0.00,,,0.00,103.000000,,2013-03-20 23:33:00,
2013-03-20 19:43:00,39.0,21.0,-100.00,WSW,250,14.0,29.0,48,0.00,,,0.00,103.000000,,2013-03-20 23:43:00,
2013-03-20 19:53:00,39.0,21.0,-100.00,WSW,250,14.0,29.0,48,0.00,,,0.00,103.000000,,2013-03-20 23:53:00,
2013-03-20 20:01:00,36.0,12.0,-100.00,WSW,239,15.0,29.0,36,0.00,,,0.00,38.000000,,2013-03-21 00:01:00,
2013-03-20 20:33:00,36.0,12.0,-100.00,WSW,239,15.0,29.0,36,0.00,,,0.00,38.000000,,2013-03-21 00:33:00,
2013-03-20 20:42:00,36.0,12.0,-100.00,WSW,239,15.0,29.0,36,0.00,,,0.00,38.000000,,2013-03-21 00:42:00,
2013-03-20 20:53:00,36.0,12.0,-100.00,WSW,239,15.0,29.0,36,0.00,,,0.00,38.000000,,2013-03-21 00:53:00,
2013-03-20 21:01:00,33.0,11.0,-100.00,WSW,258,9.0,22.0,40,0.00,,,0.00,0.000000,,2013-03-21 01:01:00,
2013-03-20 21:33:00,33.0,11.0,-100.00,WSW,258,9.0,22.0,40,0.00,,,0.00,0.000000,,2013-03-21 01:33:00,
2013-03-20 21:42:00,33.0,11.0,-100.00,WSW,258,9.0,22.0,40,0.00,,,0.00,0.000000,,2013-03-21 01:42:00,
2013-03-20 21:53:00,33.0,11.0,-100.00,WSW,258,9.0,22.0,40,0.00,,,0.00,0.000000,,2013-03-21 01:53:00,
2013-03-20 22:01:00,31.0,12.0,-100.00,WSW,253,7.0,20.0,44,0.00,,,0.00,0.000000,,2013-03-21 02:01:00,
2013-03-20 22:33:00,31.0,12.0,-100.00,WSW,253,7.0,20.0,44,0.00,,,0.00,0.000000,,2013-03-21 02:33:00,
2013-03-20 22:42:00,31.0,12.0,-100.00,WSW,253,7.0,20.0,44,0.00,,,0.00,0.000000,,2013-03-21 02:42:00,
2013-03-20 22:52:00,31.0,12.0,-100.00,WSW,253,7.0,20.0,44,0.00,,,0.00,0.000000,,2013-03-21 02:52:00,
2013-03-20 23:01:00,29.0,11.0,-100.00,West,272,1.0,17.0,47,0.00,,,0.00,0.000000,,2013-03-21 03:01:00,
2013-03-20 23:33:00,29.0,11.0,-100.00,West,272,1.0,17.0,47,0.00,,,0.00,0.000000,,2013-03-21 03:33:00,
2013-03-20 23:43:00,29.0,11.0,-100.00,West,272,1.0,17.0,47,0.00,,,0.00,0.000000,,2013-03-21 03:43:00,
2013-03-20 23:53:00,29.0,11.0,-100.00,West,272,1.0,17.0,47,0.00,,,0.00,0.000000,,2013-03-21 03:53:00,